2017-071K

Last updated on Wed Jan 17 2018 00:19:53 GMT+0000 (Coordinated Universal Time)

1 43046U 17071K 18016.48439341 .00004137 00000-0 11775-3 0 9994 2 43046 51.6409 59.8429 0004832 62.9216 297.2261 15.38404591 6278
UTC large
Height (km)
Speed (km/s)
/
Latitude / Longitude
Inclination (degrees)
Orbital Period (minutes)
Azimuth
Elevation
Range (km)
Doppler Factor

Next 0 passes for location: London (51.5072 / 0.1276)

Sorry there are no passes over London.